Regional Weather Roundup
Issued by NWS

Home | Current Version | Previous Version | Text Only | Print | Product List | Glossary Off
Versions: 1 2 3 4 5 6 7 8 9 10 11 12 13 14 15 16 17 18 19 20 21 22 23 24 25 26 27 28 29 30 31 32 33 34 35 36 37 38 39 40 41 42 43 44 45 46 47 48 49 50

000
ASUS43 KLMK 292010
RWRKY
KENTUCKY REGIONAL WEATHER ROUNDUP
NATIONAL WEATHER SERVICE LOUISVILLE KY
400 PM EDT WED JUL 29 2015

NOTE "FAIR" INDICATES FEW OR NO CLOUDS BELOW 12,000 FEET
WITH NO SIGNIFICANT WEATHER AND/OR OBSTRUCTIONS TO VISIBILITY.

KYZ001>023-026-027-061>063-070>075-292100-
WESTERN AND SOUTH CENTRAL KENTUCKY

CITY           SKY/WX    TMP DP  RH WIND       PRES   REMARKS
PADUCAH        MOSUNNY   96  76  52 NW7       29.96F HX 109
HENDERSON      MOSUNNY   95  79  59 W8        29.96S HX 112
OWENSBORO      MOSUNNY   94  80  63 W7        29.97F HX 113
HOPKINSVILLE   MOSUNNY   89  79  71 SW2       29.98F HX 103
BOWLING GREEN  MOSUNNY   91  76  61 VRB3      29.98F HX 103
GLASGOW        PTSUNNY  N/A N/A N/A SW3       29.98F
$$

KYZ024-025-028>034-038-045-046-053-292100-
NORTH CENTRAL KENTUCKY

CITY           SKY/WX    TMP DP  RH WIND       PRES   REMARKS
LOUISVILLE/SDF PTSUNNY   92  76  59 W10       29.94F HX 104
LOUISVILLE/LOU MOSUNNY   93  74  53 SW7       29.94F HX 103
FORT KNOX      MOSUNNY   93  77  59 S8        29.95F HX 106
$$

KYZ035>037-039>044-047>052-055>060-089>105-292100-
NORTHEAST KENTUCKY

CITY           SKY/WX    TMP DP  RH WIND       PRES   REMARKS
LEXINGTON      PTSUNNY   80  75  84 CALM      29.99F
COVINGTON      NOT AVBL
FRANKFORT      TSTM      78  71  79 N12       29.98S
$$

KYZ054-064>069-076>088-106>120-292100-
SOUTHEAST KENTUCKY

CITY           SKY/WX    TMP DP  RH WIND       PRES   REMARKS
JACKSON        SUNNY     88  70  55 CALM      30.01F HX  93
LONDON         MOSUNNY   87  71  58 CALM      30.02F HX  93
SOMERSET       PTSUNNY   84  72  65 CALM      30.02F
MIDDLESBORO    MOSUNNY   89  72  55 NE8       30.01F HX  96
MONTICELLO     PTCLDY    94  76  55 CALM      30.03F HX 106
$$



USA.gov is the U.S. government's official web portal to all federal, state and local government web resources and services.